Regional Weather Roundup
Issued by NWS Nashville, TN

Home | Current Version | Previous Version | Text Only | Print | Product List | Glossary On
Versions: 1 2 3 4 5 6 7 8 9 10 11 12 13 14 15 16 17 18 19 20 21 22 23 24 25 26 27 28 29 30 31 32 33 34 35 36 37 38 39 40 41 42 43 44 45 46 47 48 49 50
000
ASUS44 KOHX 270715
RWROHX
MIDDLE TENNESSEE HOURLY WEATHER ROUNDUP
NATIONAL WEATHER SERVICE NASHVILLE TN
200 AM CDT MON APR 27 2015

NOTE: "FAIR" INDICATES FEW OR NO CLOUDS BELOW 12,000 FEET WITH
NO SIGNIFICANT WEATHER AND/OR OBSTRUCTIONS TO VISIBILITY.

* THESE REPORTS ARE NOT UNDER NWS QUALITY CONTROL AND MAY NOT
  REPORT WEATHER SUCH AS PRECIPITATION AND FOG.


TNZ005>011-023>034-057-059-062>066-078-080-270800
...NORTHERN MIDDLE TENNESSEE...

CITY           SKY/WX    TMP DP  RH WIND       PRES   REMARKS
CLARKSVILLE    CLEAR     47  40  76 N9        29.93R
CROSSVILLE     PTCLDY    44  42  93 NW3       29.86F
NASHVILLE      CLEAR     48  43  82 N6        29.90S
SMYRNA         CLEAR     43  43 100 CALM      29.91S
SPARTA         CLOUDY    43  43 100 CALM      29.86F VSB 1/2
$$
TNZ056-058-060-061-075>077-079-093>097-270800
...SOUTHERN MIDDLE TENNESSEE...

CITY           SKY/WX    TMP DP  RH WIND       PRES   REMARKS
COLUMBIA       CLOUDY    43  32  65 CALM      29.87S VSB 1/4
MCMINNVILLE    CLOUDY    39  39 100 CALM      29.87S VSB 1/4
SHELBYVILLE    CLEAR     43  43 100 CALM      29.88F
TULLAHOMA      CLEAR     45  43  93 CALM      29.87F
WINCHESTER     MOCLDY    43  43 100 CALM      29.87F VSB 1
$$


...KEY TO REMARKS...
VSB - VISIBILITY IN MILES
WCI - WIND CHILL INDEX
HX  - HEAT INDEX



USA.gov is the U.S. government's official web portal to all federal, state and local government web resources and services.